Showing default

FENGYUN 2D, 29640

Orbit data source: Space-Track

FENGYUN 2D, 29640 is a payload satellite owned by CNMSC (CN) in GEO that was launched on Fri, 08 Dec 2006 UTC via a CHANG ZHENG 3A launch vehicle from the Xichang Space Center, China (XSC). Payload-class satellites include a variety of spacecraft equipped with specific instruments for various scientific and technological missions. These include communications satellites like Starlink; space stations such as the ISS; scientific satellites like the Hubble; Earth observation satellites from companies like Planet Labs, Umbra, and HawkEye 360; GPS; miniature CubeSats for education and research; and military/defense satellites.

Not visible in the next 10 days
Identifier
29640, 2006-053A
Orbit
GEO
Country
Flag of CNCN / PRC
Related business
Manufacturer
SISE
Mission
Non-operational Civil Weather
Bus & Motor
FY-2, SHANXI AKM
Mass
1,390 kg wet, ~600 kg dry
Launch date (UTC)
2006-12-08 (19 years ago)
Launch vehicle
CHANG ZHENG 3A
Launch site
Xichang Space Center, China (XSC)
Object type
Payload
Rocket body
Debris
Shape & HBR
Cyl, 1.5 m
Radar Cross Section
6.680 m², Large (>1 m²)

Expand to show TLE details & history
Last TLE update: 1 day ago

TLE from 1 day ago
0 FENGYUN 2D
1 29640U 06053A   25342.72165951 -.00000009  00000-0  00000-0 0  9997
2 29640  10.6172  42.5003 0007438  30.3600 326.1732  0.98191000 69128
Epoch: 2025-12-08T17:19Z
TLE epoch observation values (Epoch: 2025-12-08T17:19:11.381Z)
Latitude
-0.63866°
Longitude
61.53096°
Altitude
36,353.294 km
Speed
3.055 km/s
True Right ascension
02h 36m 10s
True Declination
0° 38' 17"
Sunlit
Object was in daylight at epoch
Visualization orbit readout
Latitude
Unknown
Longitude
Unknown
Altitude
Unknown
Speed
Unknown
Apparent Right ascension
Unknown
Apparent Declination
Unknown
Sunlit
N/A
Visualization observer readout
Local Sidereal Time
19:56:28
Azimuth
Unknown
Elevation
Unknown
Doppler factor
Unknown
Orbital elements
Apogee altitude
36,413 km
Perigee altitude
36,349.391 km
Semi-major axis
42,759.332 km
Eccentricity
0.00074
Inclination
10.6172°
RAAN
42.5003°
Arg. of periapsis
30.36°
True anomaly
326.12572°
Mean anomaly
326.1732°
Eccentric anomaly
326.14946°
Mean motion
0.24547 °/min
Orbital period
1,466.58 mins
BSTAR
0
Loading maneuver chart data...
Computing Atmospheric mass density...
Loading historical data...
Loading historical data...
Loading historical data...
Loading historical data...
Loading historical data...
Loading historical data...
Loading historical data...
Other satellites on launch #53 in the year 2006 (2006-12-08 UTC)

Documentation

Showing up to 5 results
|